• In Hungary
  • List of Countries
  • For 7 days
  • Water Temperature
  • Satellite Maps
  • Weather Map
  • News
  • Weather Widgets
  • user-avatar
    Login

    Hourly Weather Townsville

    Today, 26 September, Tuesday

    Time Temperature Precipitation Wind Pressure Humidity
    00:00 +19°C° 0 mm 2 mps 754 mmHg 86%
    01:00 +19°C° 0 mm 2 mps 754 mmHg 89%
    02:00 +19°C° 0 mm 2 mps 754 mmHg 90%
    03:00 +19°C° 0 mm 2 mps 754 mmHg 91%
    04:00 +19°C° 0 mm 2 mps 754 mmHg 92%
    05:00 +20°C° 0 mm 2 mps 754 mmHg 90%
    06:00 +21°C° 0 mm 1 mps 754 mmHg 87%
    07:00 +22°C° 0 mm 1 mps 755 mmHg 84%
    08:00 +25°C° 0 mm 2 mps 755 mmHg 70%
    09:00 +27°C° 0 mm 2 mps 755 mmHg 57%
    10:00 +30°C° 0 mm 2 mps 755 mmHg 44%
    11:00 +31°C° 0 mm 2 mps 755 mmHg 41%
    12:00 +33°C° 0 mm 3 mps 754 mmHg 39%
    13:00 +34°C° 0 mm 3 mps 754 mmHg 37%
    14:00 +33°C° 0 mm 3 mps 753 mmHg 40%
    15:00 +31°C° 0 mm 3 mps 753 mmHg 43%
    16:00 +31°C° 0 mm 3 mps 753 mmHg 46%
    17:00 +28°C° 0 mm 3 mps 753 mmHg 59%
    18:00 +26°C° 0 mm 2 mps 753 mmHg 72%
    19:00 +24°C° 0 mm 2 mps 753 mmHg 85%
    20:00 +23°C° 0 mm 2 mps 754 mmHg 88%
    21:00 +23°C° 0 mm 2 mps 754 mmHg 92%
    22:00 +21°C° 0 mm 2 mps 755 mmHg 96%
    23:00 +21°C° 0 mm 2 mps 755 mmHg 96%

    Tomorrow, 27 September, Wednesday

    Time Temperature Precipitation Wind Pressure Humidity
    00:00 +21°C° 0 mm 2 mps 754 mmHg 96%
    01:00 +21°C° 0 mm 2 mps 754 mmHg 96%
    02:00 +23°C° 0 mm 2 mps 754 mmHg 95%
    03:00 +23°C° 0 mm 2 mps 754 mmHg 94%
    04:00 +23°C° 0 mm 2 mps 754 mmHg 93%
    05:00 +23°C° 0 mm 2 mps 755 mmHg 92%
    06:00 +23°C° 0 mm 2 mps 755 mmHg 90%
    07:00 +24°C° 0 mm 2 mps 756 mmHg 88%
    08:00 +26°C° 0 mm 3 mps 756 mmHg 78%
    09:00 +28°C° 0 mm 3 mps 756 mmHg 68%
    10:00 +30°C° 0 mm 3 mps 756 mmHg 57%
    11:00 +32°C° 0 mm 4 mps 755 mmHg 53%
    12:00 +32°C° 0 mm 4 mps 755 mmHg 48%
    13:00 +33°C° 0 mm 4 mps 754 mmHg 44%
    14:00 +33°C° 0 mm 4 mps 754 mmHg 45%
    15:00 +32°C° 0 mm 4 mps 753 mmHg 46%
    16:00 +31°C° 0 mm 3 mps 753 mmHg 47%
    17:00 +28°C° 0 mm 3 mps 753 mmHg 60%
    18:00 +26°C° 0 mm 3 mps 754 mmHg 73%
    19:00 +24°C° 0 mm 2 mps 754 mmHg 86%
    20:00 +23°C° 0 mm 2 mps 755 mmHg 90%
    21:00 +23°C° 0 mm 2 mps 755 mmHg 93%
    22:00 +21°C° 0 mm 2 mps 756 mmHg 96%
    23:00 +21°C° 0 mm 2 mps 756 mmHg 97%

    Day after tomorrow, 28 September, Thursday

    Time Temperature Precipitation Wind Pressure Humidity
    00:00 +21°C° 0 mm 2 mps 755 mmHg 97%
    01:00 +20°C° 0 mm 2 mps 755 mmHg 97%
    02:00 +20°C° 0 mm 2 mps 755 mmHg 97%
    03:00 +20°C° 0 mm 2 mps 755 mmHg 97%
    04:00 +20°C° 0 mm 2 mps 755 mmHg 97%
    05:00 +20°C° 0 mm 2 mps 755 mmHg 93%
    06:00 +21°C° 0 mm 2 mps 755 mmHg 90%
    07:00 +23°C° 0 mm 2 mps 756 mmHg 86%
    08:00 +25°C° 0 mm 3 mps 756 mmHg 75%
    09:00 +27°C° 0 mm 3 mps 756 mmHg 64%
    10:00 +29°C° 0 mm 4 mps 756 mmHg 53%
    11:00 +30°C° 0 mm 4 mps 756 mmHg 50%
    12:00 +32°C° 0 mm 4 mps 755 mmHg 47%
    13:00 +33°C° 0 mm 4 mps 754 mmHg 44%
    14:00 +32°C° 0 mm 4 mps 754 mmHg 46%
    15:00 +30°C° 0 mm 3 mps 753 mmHg 48%
    16:00 +30°C° 0 mm 3 mps 753 mmHg 51%
    17:00 +28°C° 0 mm 3 mps 753 mmHg 61%
    18:00 +25°C° 0 mm 2 mps 754 mmHg 71%
    19:00 +23°C° 0 mm 2 mps 754 mmHg 82%
    20:00 +23°C° 0 mm 2 mps 755 mmHg 85%
    21:00 +21°C° 0 mm 2 mps 755 mmHg 89%
    22:00 +21°C° 0 mm 2 mps 756 mmHg 93%
    23:00 +21°C° 0 mm 2 mps 756 mmHg 92%

    29 September, Friday

    Time Temperature Precipitation Wind Pressure Humidity
    00:00 +21°C° 0 mm 2 mps 756 mmHg 92%
    01:00 +21°C° 0 mm 2 mps 756 mmHg 91%
    02:00 +21°C° 0 mm 2 mps 755 mmHg 90%
    03:00 +21°C° 0 mm 2 mps 755 mmHg 89%
    04:00 +23°C° 0 mm 2 mps 755 mmHg 88%
    05:00 +23°C° 0 mm 2 mps 756 mmHg 87%
    06:00 +23°C° 0 mm 2 mps 756 mmHg 86%
    07:00 +24°C° 0 mm 2 mps 757 mmHg 84%
    08:00 +26°C° 0 mm 3 mps 757 mmHg 74%
    09:00 +28°C° 0 mm 3 mps 757 mmHg 64%
    10:00 +30°C° 0 mm 4 mps 757 mmHg 54%
    11:00 +30°C° 0 mm 4 mps 756 mmHg 52%
    12:00 +32°C° 0 mm 4 mps 756 mmHg 49%
    13:00 +33°C° 0 mm 4 mps 755 mmHg 47%
    14:00 +32°C° 0 mm 4 mps 755 mmHg 50%
    15:00 +30°C° 0 mm 4 mps 754 mmHg 52%
    16:00 +29°C° 0 mm 4 mps 754 mmHg 55%
    17:00 +28°C° 0 mm 3 mps 755 mmHg 65%
    18:00 +26°C° 0 mm 3 mps 755 mmHg 75%
    19:00 +24°C° 0 mm 2 mps 756 mmHg 85%
    20:00 +23°C° 0 mm 2 mps 756 mmHg 88%
    21:00 +23°C° 0 mm 2 mps 756 mmHg 92%
    22:00 +23°C° 0 mm 2 mps 757 mmHg 95%
    23:00 +21°C° 0 mm 2 mps 756 mmHg 96%

    30 September, Saturday

    Time Temperature Precipitation Wind Pressure Humidity
    00:00 +22°C° 0 mm 1 mps 756 mmHg 96%
    01:00 +22°C° 0 mm 1 mps 755 mmHg 97%
    02:00 +22°C° 0 mm 1 mps 755 mmHg 97%
    03:00 +21°C° 0 mm 1 mps 755 mmHg 97%
    04:00 +21°C° 0 mm 1 mps 755 mmHg 97%
    05:00 +22°C° 0 mm 1 mps 755 mmHg 94%
    06:00 +22°C° 0 mm 1 mps 756 mmHg 92%
    07:00 +23°C° 0 mm 2 mps 756 mmHg 89%
    08:00 +25°C° 0 mm 2 mps 756 mmHg 77%
    09:00 +27°C° 0 mm 3 mps 756 mmHg 65%
    10:00 +29°C° 0 mm 4 mps 756 mmHg 53%
    11:00 +30°C° 0 mm 4 mps 756 mmHg 50%
    12:00 +32°C° 0 mm 4 mps 755 mmHg 47%
    13:00 +32°C° 0 mm 4 mps 754 mmHg 43%
    14:00 +32°C° 0 mm 4 mps 754 mmHg 46%
    15:00 +30°C° 0 mm 4 mps 754 mmHg 48%
    16:00 +29°C° 0 mm 4 mps 753 mmHg 51%
    17:00 +27°C° 0 mm 3 mps 754 mmHg 62%
    18:00 +25°C° 0 mm 3 mps 754 mmHg 74%
    19:00 +23°C° 0 mm 2 mps 755 mmHg 86%
    20:00 +23°C° 0 mm 2 mps 755 mmHg 89%
    21:00 +21°C° 0 mm 2 mps 756 mmHg 92%
    22:00 +21°C° 0 mm 2 mps 756 mmHg 95%
    23:00 +20°C° 0 mm 2 mps 756 mmHg 96%

    1 October, Sunday

    Time Temperature Precipitation Wind Pressure Humidity
    00:00 +20°C° 0 mm 2 mps 755 mmHg 96%
    01:00 +21°C° 0 mm 1 mps 755 mmHg 97%
    02:00 +21°C° 0 mm 1 mps 755 mmHg 97%
    03:00 +21°C° 0 mm 1 mps 755 mmHg 97%
    04:00 +21°C° 0 mm 1 mps 754 mmHg 97%
    05:00 +21°C° 0 mm 1 mps 755 mmHg 95%
    06:00 +22°C° 0 mm 1 mps 755 mmHg 92%
    07:00 +22°C° 0 mm 1 mps 756 mmHg 90%
    08:00 +24°C° 0 mm 2 mps 756 mmHg 75%
    09:00 +27°C° 0 mm 3 mps 756 mmHg 61%
    10:00 +29°C° 0 mm 3 mps 756 mmHg 47%
    11:00 +30°C° 0 mm 4 mps 755 mmHg 44%
    12:00 +32°C° 0 mm 4 mps 755 mmHg 42%
    13:00 +32°C° 0 mm 5 mps 754 mmHg 40%
    14:00 +32°C° 0 mm 5 mps 754 mmHg 43%
    15:00 +30°C° 0 mm 5 mps 754 mmHg 47%
    16:00 +29°C° 0 mm 5 mps 754 mmHg 51%
    17:00 +27°C° 0 mm 4 mps 755 mmHg 62%
    18:00 +25°C° 0 mm 4 mps 755 mmHg 72%
    19:00 +24°C° 0 mm 3 mps 756 mmHg 83%
    20:00 +22°C° 0 mm 4 mps 757 mmHg 85%
    21:00 +22°C° 0 mm 4 mps 757 mmHg 87%
    22:00 +22°C° 0 mm 4 mps 757 mmHg 89%
    23:00 +22°C° 0 mm 4 mps 757 mmHg 90%
    Show more